#timestamp,LO_Frequency,Hit,StdDev 
1521111615.1,286046998.3,N
1521111616.0,286046998.3,N
1521111635.8,286046999.3,N
1521111655.7,286046996.6,N
1521111675.5,286046999.6,N
1521111695.3,286046998.3,N
1521111715.2,286046998.9,N
1521111735.0,286046997.4,N
1521111735.9,286046997.4,N
1521111755.7,286046999.1,N
1521111775.6,286046998.3,N
1521111795.4,286047000.5,N
1521111815.3,286047000.5,N
1521111835.1,286047000.6,N
1521111836.0,286047000.6,N
1521111855.8,286046999.2,N
1521111875.7,286046998.3,N
1521111895.5,286046998.6,N
1521111915.3,286046999.2,N
1521111935.2,286046996.6,N
1521111955.0,286046999.2,N
1521111955.9,286046999.2,N
1521111975.8,286046998.4,N
1521111995.6,286046998.3,N
1521112015.4,286046998.5,N
1521112035.3,286046998.4,N
1521112055.1,286046999.3,N
1521112075.9,286046998.5,N
1521112095.7,286047000.0,N
1521112115.5,286047000.4,N
1521112135.4,286046998.3,N
1521112155.2,286047001.1,N
1521112175.1,286046998.5,N
1521112176.0,286046998.5,N
1521112195.8,286046998.4,N
1521112215.6,286047001.2,N
1521112235.5,286046998.8,N
1521112255.3,286046996.9,N
1521112275.2,286046997.4,N
1521112295.9,286046997.5,N
1521112315.7,286046997.4,N
1521112335.6,286046996.8,N
1521112355.4,286046998.6,N
1521112375.3,286046999.4,N
1521112395.1,286046998.7,N
1521112396.0,286046998.7,N
1521112415.8,286046999.4,N
1521112435.0,286047001.1,N
1521112435.9,286047001.1,N
1521112455.7,286046998.2,N
1521112475.6,286046998.1,N
1521112495.4,286047000.3,N
1521112515.3,286046999.3,N
1521112535.1,286046998.9,N
1521112536.0,286046998.9,N
1521112555.8,286046999.3,N
1521112575.7,286046997.4,N
1521112595.5,286046996.7,N
1521112615.3,286046996.6,N
1521112635.2,286046996.8,N
1521112655.0,286046997.1,N
1521112655.9,286046997.1,N
1521112675.8,286046996.8,N
1521112695.6,286046999.5,N
1521112715.4,286046998.3,N
1521112735.3,286046998.9,N
1521112755.1,286046998.1,N
1521112775.9,286046998.5,N
1521112795.7,286047001.1,N
1521112815.5,286046998.5,N
1521112835.4,286046998.9,N
1521112855.2,286046998.1,N
1521112875.0,286046999.9,N
1521112875.9,286046999.9,N
1521112895.8,286047000.2,N
1521112915.6,286047001.1,N
1521112935.5,286047002.7,N
1521112955.3,286047002.1,N
1521112975.1,286047002.7,N
1521112995.9,286047002.4,N
1521113015.7,286047002.0,N
1521113035.5,286047002.5,N
1521113055.4,286047000.9,N
1521113075.2,286046998.7,N
1521113095.1,286046999.2,N
1521113096.0,286046999.2,N
1521113115.8,286046999.3,N
1521113135.6,286046998.3,N
1521113155.5,286046998.5,N
1521113175.3,286046999.1,N
1521113195.1,286047000.9,N
1521113215.9,286046998.4,N
1521113235.7,286046998.7,N
1521113255.6,286046999.4,N
1521113275.4,286046999.0,N
1521113295.2,286047001.1,N
1521113315.1,286046998.6,N
1521113316.0,286046998.6,N
1521113335.8,286046998.5,N
1521113355.7,286047000.9,N
1521113375.5,286046998.7,N
1521113395.3,286046999.4,N
1521113415.2,286046997.4,N
1521113435.0,286046996.9,N
1521113435.9,286046996.9,N
1521113455.8,286047000.7,N
1521113475.6,286046999.2,N
1521113495.4,286046999.4,N
1521113515.3,286046996.5,N
1521113535.1,286046999.4,N
1521113555.8,286047000.7,N
1521113575.7,286046999.0,N
1521113595.5,286046999.0,N
1521113615.4,286046998.4,N
1521113635.2,286047000.8,N
1521113655.0,286046998.2,N
1521113655.9,286046998.2,N
1521113675.8,286046998.5,N
1521113695.6,286046996.6,N
1521113715.4,286046999.4,N
1521113735.3,286046998.6,N
1521113755.1,286046998.2,N
1521113775.9,286047001.1,N
1521113795.7,286046998.2,N
1521113815.5,286046998.3,N
1521113835.4,286046999.1,N
1521113855.2,286046996.6,N
1521113875.0,286046999.2,N
1521113875.9,286046999.2,N
1521113895.8,286046999.0,N
1521113915.6,286046996.8,N
1521113935.5,286046999.4,N
1521113955.3,286046999.4,N
1521113975.2,286046998.7,N
1521113995.9,286046999.1,N
1521114015.7,286046998.9,N
1521114035.6,286046999.4,N
1521114055.4,286046999.5,N
1521114075.3,286046999.2,N
1521114095.1,286046999.3,N
1521114096.0,286046999.3,N
1521114115.8,286046997.2,N
1521114135.7,286046994.9,Y
1521114155.5,286046996.6,P
1521114175.4,286046999.3,N
1521114195.2,286046998.8,N
1521114215.0,286047000.6,N
1521114215.9,286047000.6,N
1521114235.8,286046997.0,N
1521114255.6,286046999.6,N
1521114275.5,286047001.2,N
1521114295.3,286046998.6,N
1521114315.1,286047001.1,N
1521114335.9,286047001.1,N
1521114355.7,286047000.8,N
1521114375.5,286047000.0,N
1521114395.4,286047002.6,N
1521114415.2,286047002.2,N
1521114435.1,286047002.0,N
1521114436.0,286047002.0,N
1521114455.8,286047002.5,N
1521114475.6,286047002.3,N
1521114495.5,286047001.8,N
1521114515.3,286047002.4,N
1521114535.1,286047002.4,N
1521114555.9,286047001.9,N
1521114575.7,286047004.0,N
1521114595.6,286047001.8,N
1521114615.4,286047003.4,N
1521114635.2,286047001.6,N
1521114655.1,286047002.1,N
1521114656.0,286047002.1,N
1521114675.8,286047001.3,N
1521114695.6,286046999.7,N
1521114715.5,286047000.3,N
1521114735.3,286047000.4,N
1521114755.2,286047002.4,N
1521114775.9,286047000.6,N
1521114795.7,286047002.8,N
1521114815.6,286047002.1,N
1521114835.4,286047001.5,N
1521114855.2,286047002.6,N
1521114875.1,286046998.2,N
1521114876.0,286046998.2,N
1521114895.8,286046999.0,N
1521114915.7,286047000.6,N
1521114965.5,286047002.6,E
1521114975.5,286047000.9,N
1521114995.3,286047000.8,P
1521115015.1,286046998.8,P
1521115035.9,286046998.7,N
1521115055.7,286046999.5,N
1521115075.5,286046998.9,N
1521115095.4,286046996.7,Y
1521115115.2,286046997.2,P
1521115135.1,286046996.8,N
1521115136.0,286046996.8,N
1521115155.8,286046999.1,N
1521115175.6,286047000.6,N
1521115195.5,286047000.7,N
